[[{"header":{"parameterUnit":"m.s-1","parameterCategory":1,"la1":30.2991,"la2":30.254,"lo1":-89.0895,"lo2":-89.0444,"dy":0.0017,"dx":0.0017,"nx":28,"ny":28,"refTime":"2024-02-28T03:00:00:Z","depth":0,"parameterNumber":2,"parameterNumberName":"U-component_of_WINDS"},"data":[0,0,0,0,0,0,0,0,0,0,0,0,0,0,0,0,0,0,0,0,0,0,0,0,0,0,0,0,0,0,0,0,0,0,0,0,0,0,0,0,0,0,0,0,0,0,0,0,0,0,0,0,0,0,0,0,0,0,-3.0574,-3.0574,0,-3.06,-3.06,-3.06,-3.0535,-3.0533,-3.0531,-3.0529,-3.0556,-3.0558,-3.0561,0,0,0,0,0,0,0,0,0,0,0,0,0,-3.0468,-3.047,-3.0574,-3.0574,-3.0574,-3.0599,-3.06,-3.06,-3.0536,-3.0533,-3.0531,-3.0529,-3.0555,-3.0558,-3.0561,0,0,0,0,0,0,0,0,0,0,0,0,0,-3.0506,-3.0471,-3.0574,-3.0545,-3.0543,-3.0599,-3.06,-3.06,-3.0536,-3.0533,-3.053,-3.0527,-3.0554,-3.0558,-3.0562,-3.0647,0,0,-3.0574,-3.0575,0,0,0,0,0,0,0,0,-3.0504,-3.051,-3.0549,-3.0547,-3.0545,-3.0561,-3.0572,-3.0616,-3.0537,-3.0539,-3.0529,-3.0526,-3.056,-3.0563,-3.0575,-3.0648,-3.0649,-3.0574,-3.0576,-3.0578,-3.0579,0,0,0,0,0,0,0,-3.0501,-3.0508,-3.0584,-3.055,-3.0547,-3.0531,-3.0533,-3.058,-3.0566,-3.0538,-3.0534,-3.0538,-3.0558,-3.0571,-3.0575,-3.065,-3.0574,-3.0577,-3.058,-3.0581,-3.0793,-3.0796,0,0,0,0,0,0,-3.0502,-3.0506,-3.0583,-3.0585,-3.0516,-3.0535,-3.0538,-3.0559,-3.0566,-3.0564,-3.054,-3.0535,-3.0566,-3.0571,-3.0576,-3.0676,-3.0578,-3.0582,-3.0584,-3.079,-3.0794,-3.0798,0,0,0,0,0,0,-3.05,-3.051,-3.0582,-3.0544,-3.0552,-3.054,-3.0565,-3.0561,-3.0574,-3.0567,-3.0564,-3.0556,-3.0564,-3.057,-3.063,-3.0676,-3.0583,-3.0587,-3.0786,-3.0791,-3.0796,-3.0877,0,0,0,0,0,0,-3.0497,-3.0509,-3.0542,-3.0546,-3.0555,-3.0636,-3.0568,-3.0564,-3.0581,-3.0574,-3.0581,-3.0579,-3.0562,-3.0624,-3.0633,-3.068,-3.059,-3.0782,-3.0788,-3.0794,-3.087,-3.0884,-3.0896,0,0,0,0,0,-3.0494,-3.0564,-3.0544,-3.0554,-3.0595,-3.0639,-3.0644,-3.0623,-3.0585,-3.0617,-3.0613,-3.0579,-3.0669,-3.0631,-3.0641,-3.0689,-3.0779,-3.0787,-3.0794,-3.0865,-3.0882,-3.0896,0,0,0,0,0,0,-3.0567,-3.0564,-3.0542,-3.0615,-3.0628,-3.0628,-3.0668,-3.0641,-3.0665,-3.0657,-3.0629,-3.0631,-3.0696,-3.0698,-3.0655,-3.0771,-3.0718,-3.0727,-3.0768,-3.0784,-3.0797,-3.0796,-3.0593,0,0,0,0,0,-3.0591,-3.0627,-3.0622,-3.0688,-3.0695,-3.0681,-3.0699,-3.0681,-3.0693,-3.0698,-3.0698,-3.0711,-3.0741,-3.0763,-3.0791,-3.087,-3.087,-3.0908,-3.0921,-3.0931,-3.094,-3.0982,-3.0999,-3.0822,-3.0822,-3.0822,0,0,-3.0642,-3.0645,-3.067,-3.0702,-3.071,-3.0748,-3.0686,-3.0728,-3.0756,-3.0704,-3.0761,-3.0761,-3.0773,-3.0843,-3.0873,-3.0846,-3.0989,-3.0941,-3.0949,-3.0953,-3.0992,-3.1008,-3.1023,-3.0827,-3.0826,-3.0825,0,0,-3.0755,-3.0761,-3.0816,-3.0824,-3.0836,-3.0826,-3.0839,-3.0843,-3.0841,-3.0897,-3.0859,-3.0891,-3.0945,-3.0956,-3.0968,-3.1083,-3.1053,-3.1093,-3.1161,-3.1202,-3.1216,-3.1228,-3.127,-3.1285,-3.1102,-3.1102,-3.1102,0,-3.0817,-3.0873,-3.0847,-3.0892,-3.0908,-3.0862,-3.0917,-3.0927,-3.0948,-3.096,-3.0929,-3.0995,-3.1,-3.1071,-3.1099,-3.1111,-3.1125,-3.1093,-3.1216,-3.1228,-3.1239,-3.1278,-3.1294,-3.1107,-3.1106,-3.1106,-3.1105,0,-3.0949,-3.0988,-3.103,-3.1052,-3.1071,-3.1121,-3.1103,-3.1126,-3.1106,-3.1099,-3.1156,-3.116,-3.1189,-3.1204,-3.1185,-3.1272,-3.1255,-3.1221,-3.1167,-3.1261,-3.1298,-3.1313,-3.1114,-3.1112,-3.111,-3.1109,0,0,-3.111,-3.1115,-3.1131,-3.114,-3.115,-3.1179,-3.1226,-3.1254,-3.1274,-3.1289,-3.1329,-3.1375,-3.1343,-3.1357,-3.1338,-3.1374,-3.1465,-3.1335,-3.1335,-3.136,-3.1562,-3.1589,-3.1607,-3.1445,-3.1447,-3.145,-3.1561,0,-3.1222,-3.1304,-3.1281,-3.1363,-3.1399,-3.1355,-3.1396,-3.1406,-3.14,-3.1429,-3.1422,-3.1456,-3.1411,-3.1419,-3.1452,-3.1447,-3.1506,-3.1439,-3.1481,-3.1483,-3.1481,-3.1626,-3.1654,-3.176,-3.1575,-3.1578,-3.1579,0,-3.1364,-3.1385,-3.147,-3.1473,-3.1487,-3.1524,-3.1547,-3.1575,-3.1585,-3.1578,-3.1593,-3.1567,-3.1613,-3.1558,-3.1621,-3.1576,-3.1592,-3.1592,-3.1595,-3.1599,-3.1538,-3.1635,-3.1793,-3.1809,-3.1602,-3.16,-3.1598,0,-3.1474,-3.1523,-3.158,-3.1589,-3.1593,-3.1621,-3.1624,-3.1631,-3.1648,-3.1668,-3.1679,-3.1704,-3.1717,-3.1737,-3.1718,-3.1679,-3.1784,-3.1727,-3.178,-3.1781,-3.1806,-3.1805,-3.1969,-3.1814,-3.1814,-3.1814,-3.1813,0,-3.1602,-3.1656,-3.1629,-3.1665,-3.1724,-3.1697,-3.1756,-3.1754,-3.176,-3.1794,-3.1757,-3.179,-3.1763,-3.1793,-3.1778,-3.1833,-3.1839,-3.1835,-3.183,-3.1839,-3.1839,-3.185,-3.1842,-3.1818,-3.1817,-3.1816,-3.1815,0,-3.1736,-3.172,-3.1779,-3.1778,-3.1779,-3.1823,-3.1822,-3.1854,-3.1845,-3.1888,-3.1897,-3.1883,-3.1916,-3.1898,-3.1933,-3.1923,-3.1994,-3.1979,-3.1991,-3.1988,-3.2042,-3.2037,-3.222,-3.2243,-3.2072,-3.2074,-3.2075,0,-3.1819,-3.186,-3.1863,-3.1883,-3.1888,-3.1921,-3.1938,-3.1913,-3.1933,-3.1946,-3.1977,-3.2007,-3.203,-3.2085,-3.2078,-3.2104,-3.209,-3.2152,-3.2094,-3.2101,-3.2092,-3.209,-3.2094,-3.2164,-3.2166,-3.2168,-3.2169,0,-3.1969,-3.1959,-3.1986,-3.201,-3.2031,-3.2049,-3.2063,-3.2082,-3.2057,-3.208,-3.2114,-3.2132,-3.2166,-3.2197,-3.2219,-3.2221,-3.2192,-3.2187,-3.2201,-3.2211,-3.2216,-3.2215,-3.2024,-3.2184,-3.2182,-3.2181,-3.218,-3.218,-3.2081,-3.2115,-3.2122,-3.2153,-3.216,-3.2175,-3.2205,-3.2199,-3.2227,-3.2253,-3.2236,-3.2275,-3.2283,-3.231,-3.2316,-3.2346,-3.2321,-3.2341,-3.2347,-3.2352,-3.236,-3.221,-3.235,-3.235,-3.2349,-3.2349,-3.2349,0,-3.223,-3.2232,-3.226,-3.2281,-3.2305,-3.2274,-3.2288,-3.231,-3.2345,-3.2355,-3.2378,-3.2416,-3.2445,-3.2439,-3.2465,-3.249,-3.2477,-3.2498,-3.2497,-3.2498,-3.238,-3.2366,-3.2508,-3.2508,-3.2508,-3.2508,-3.2508,-3.2508,-3.231,-3.2366,-3.2356,-3.2415,-3.2416,-3.2455,-3.2465,-3.2478,-3.2485,-3.253,-3.2553,-3.2549,-3.2553,-3.2578,-3.2603,-3.2601,-3.2612,-3.2638,-3.2631,-3.2522,-3.2506,-3.2491,-3.2478,-3.2641,-3.2641,-3.2746,-3.2747,-3.2748]},{"header":{"parameterUnit":"m.s-1","parameterCategory":1,"la1":30.2991,"la2":30.254,"lo1":-89.0895,"lo2":-89.0444,"dy":0.0017,"dx":0.0017,"nx":28,"ny":28,"refTime":"2024-02-28T03:00:00:Z","depth":0,"parameterNumber":3,"parameterNumberName":"V-component_of_WINDS"},"data":[0,0,0,0,0,0,0,0,0,0,0,0,0,0,0,0,0,0,0,0,0,0,0,0,0,0,0,0,0,0,0,0,0,0,0,0,0,0,0,0,0,0,0,0,0,0,0,0,0,0,0,0,0,0,0,0,0,0,-9.4138,-9.414,0,-9.4265,-9.4267,-9.4268,-9.4172,-9.4168,-9.4164,-9.416,-9.4282,-9.4289,-9.4296,0,0,0,0,0,0,0,0,0,0,0,0,0,-9.3806,-9.3813,-9.4138,-9.414,-9.4142,-9.4265,-9.4267,-9.4268,-9.4173,-9.4168,-9.4163,-9.4158,-9.428,-9.4288,-9.4297,0,0,0,0,0,0,0,0,0,0,0,0,0,-9.3943,-9.3815,-9.4138,-9.4109,-9.4108,-9.4265,-9.4267,-9.4269,-9.4174,-9.4168,-9.4162,-9.4156,-9.4277,-9.4287,-9.4298,-9.4488,0,0,-9.433,-9.4335,0,0,0,0,0,0,0,0,-9.3936,-9.3956,-9.4112,-9.4111,-9.411,-9.4197,-9.4194,-9.4342,-9.4176,-9.4149,-9.416,-9.4153,-9.4258,-9.427,-9.4307,-9.4493,-9.4499,-9.4331,-9.4338,-9.4342,-9.4345,0,0,0,0,0,0,0,-9.3926,-9.395,-9.4188,-9.4114,-9.4113,-9.4087,-9.41,-9.4222,-9.4236,-9.415,-9.4144,-9.4161,-9.4256,-9.4297,-9.4309,-9.45,-9.4331,-9.434,-9.4347,-9.4351,-9.4849,-9.4856,0,0,0,0,0,0,-9.3921,-9.3942,-9.4184,-9.4192,-9.4006,-9.4098,-9.4112,-9.4175,-9.4235,-9.4238,-9.4166,-9.4156,-9.4282,-9.4297,-9.4313,-9.454,-9.4342,-9.4352,-9.4358,-9.4842,-9.4851,-9.4858,0,0,0,0,0,0,-9.3914,-9.3943,-9.4179,-9.4066,-9.4094,-9.4111,-9.4182,-9.4181,-9.4221,-9.4247,-9.4248,-9.4205,-9.4278,-9.4298,-9.4446,-9.4543,-9.4357,-9.4367,-9.4834,-9.4845,-9.4854,-9.4996,0,0,0,0,0,0,-9.3905,-9.3941,-9.4016,-9.4068,-9.41,-9.4312,-9.4188,-9.4188,-9.4241,-9.4229,-9.4284,-9.4287,-9.4274,-9.443,-9.4456,-9.4555,-9.4375,-9.4826,-9.4839,-9.4851,-9.4983,-9.501,-9.5033,0,0,0,0,0,-9.3893,-9.4048,-9.402,-9.4049,-9.4194,-9.4318,-9.4336,-9.4321,-9.4249,-9.4323,-9.4339,-9.4285,-9.4528,-9.4446,-9.4475,-9.4578,-9.4819,-9.4835,-9.485,-9.4971,-9.5004,-9.5032,0,0,0,0,0,0,-9.4003,-9.4055,-9.4023,-9.4201,-9.4256,-9.4302,-9.4394,-9.4356,-9.4431,-9.4416,-9.4391,-9.4405,-9.456,-9.4583,-9.4491,-9.4765,-9.4662,-9.4684,-9.4744,-9.4776,-9.4801,-9.4792,-9.4384,0,0,0,0,0,-9.4049,-9.4149,-9.4186,-9.4339,-9.4369,-9.4377,-9.443,-9.4414,-9.447,-9.4492,-9.4518,-9.4572,-9.4661,-9.4719,-9.4802,-9.4985,-9.4995,-9.507,-9.5095,-9.5115,-9.5135,-9.5234,-9.5268,-9.4909,-9.4908,-9.4908,0,0,-9.4143,-9.4183,-9.4247,-9.4362,-9.4403,-9.4505,-9.4397,-9.4509,-9.4583,-9.4507,-9.465,-9.4672,-9.4729,-9.4896,-9.4971,-9.492,-9.5236,-9.5135,-9.5151,-9.5159,-9.5253,-9.5287,-9.5317,-9.4919,-9.4917,-9.4915,0,0,-9.4366,-9.4407,-9.4539,-9.4583,-9.4648,-9.4653,-9.4685,-9.4737,-9.4749,-9.4892,-9.4838,-9.4924,-9.5077,-9.5121,-9.5164,-9.5405,-9.5359,-9.5432,-9.5564,-9.5661,-9.569,-9.5714,-9.5801,-9.5833,-9.5451,-9.5452,-9.5452,0,-9.4474,-9.4628,-9.4611,-9.4728,-9.478,-9.4719,-9.4852,-9.4894,-9.4982,-9.5018,-9.4961,-9.5153,-9.5187,-9.5364,-9.5423,-9.5459,-9.5494,-9.5427,-9.5687,-9.5712,-9.5735,-9.5818,-9.585,-9.546,-9.5459,-9.5458,-9.5458,0,-9.4757,-9.4865,-9.4963,-9.5053,-9.5116,-9.524,-9.524,-9.5306,-9.5284,-9.5294,-9.544,-9.548,-9.557,-9.561,-9.5588,-9.5784,-9.5751,-9.5691,-9.5587,-9.5778,-9.5856,-9.5887,-9.5473,-9.547,-9.5467,-9.5465,0,0,-9.5054,-9.5134,-9.5171,-9.5212,-9.5279,-9.536,-9.5481,-9.5572,-9.5629,-9.5691,-9.5791,-9.5922,-9.5868,-9.5916,-9.5899,-9.5984,-9.6174,-9.5913,-9.5914,-9.5961,-9.6392,-9.6438,-9.6475,-9.6143,-9.6149,-9.6154,-9.6388,0,-9.5282,-9.5496,-9.5485,-9.5685,-9.5784,-9.5727,-9.5832,-9.5884,-9.5897,-9.598,-9.5992,-9.6087,-9.6007,-9.6036,-9.6118,-9.6134,-9.626,-9.6116,-9.6235,-9.6239,-9.6224,-9.6516,-9.6564,-9.6784,-9.6418,-9.6423,-9.6427,0,-9.5576,-9.5653,-9.5864,-9.5918,-9.5959,-9.6054,-9.6137,-9.6218,-9.6275,-9.6278,-9.6333,-9.6302,-9.6422,-9.6316,-9.648,-9.6383,-9.643,-9.6445,-9.6453,-9.6464,-9.6346,-9.6536,-9.6853,-9.6886,-9.6474,-9.647,-9.6467,0,-9.5773,-9.5928,-9.6075,-9.6111,-9.6177,-9.6246,-9.6276,-9.6327,-9.6383,-9.6454,-9.649,-9.6573,-9.6619,-9.6683,-9.6675,-9.6598,-9.6843,-9.6735,-9.6848,-9.6849,-9.6903,-9.69,-9.7234,-9.6932,-9.6931,-9.6931,-9.693,0,-9.603,-9.6161,-9.6164,-9.6255,-9.64,-9.6385,-9.6528,-9.655,-9.6596,-9.6688,-9.6642,-9.6729,-9.6713,-9.6799,-9.6792,-9.693,-9.695,-9.6955,-9.6952,-9.696,-9.696,-9.6992,-9.6977,-9.6939,-9.6938,-9.6936,-9.6934,0,-9.6274,-9.6282,-9.6438,-9.649,-9.6505,-9.661,-9.6652,-9.6737,-9.6746,-9.6863,-9.6889,-9.6903,-9.7002,-9.7,-9.7112,-9.7107,-9.7277,-9.7255,-9.7259,-9.7255,-9.7369,-9.7359,-9.7735,-9.7784,-9.745,-9.7453,-9.7456,0,-9.6438,-9.6539,-9.6602,-9.6662,-9.6698,-9.6794,-9.6852,-9.684,-9.6902,-9.6975,-9.705,-9.7146,-9.7222,-9.7382,-9.74,-9.7485,-9.7466,-9.7592,-9.7479,-9.7484,-9.7469,-9.7464,-9.7474,-9.7615,-9.7619,-9.7622,-9.7624,0,-9.6729,-9.6728,-9.6815,-9.6904,-9.6975,-9.7044,-9.7106,-9.7157,-9.7152,-9.7223,-9.7326,-9.7385,-9.7501,-9.7596,-9.7678,-9.7705,-9.7665,-9.766,-9.7691,-9.7701,-9.7699,-9.7703,-9.7321,-9.7652,-9.7649,-9.7647,-9.7645,-9.7644,-9.6939,-9.7026,-9.7085,-9.7183,-9.723,-9.729,-9.7373,-9.7394,-9.748,-9.7576,-9.7562,-9.7677,-9.773,-9.7837,-9.7873,-9.796,-9.7916,-9.796,-9.7971,-9.7983,-9.7996,-9.7685,-9.7975,-9.7974,-9.7973,-9.7973,-9.7972,0,-9.7228,-9.7264,-9.7354,-9.7446,-9.7523,-9.748,-9.7548,-9.7614,-9.7717,-9.7772,-9.7849,-9.7966,-9.8059,-9.8085,-9.8173,-9.8239,-9.8222,-9.8262,-9.8258,-9.8265,-9.8031,-9.7996,-9.8275,-9.8274,-9.8274,-9.8274,-9.8274,-9.8274,-9.7388,-9.7534,-9.754,-9.7708,-9.7742,-9.7857,-9.7899,-9.7954,-9.7998,-9.8133,-9.8211,-9.8228,-9.8271,-9.8363,-9.8445,-9.845,-9.8485,-9.8533,-9.8531,-9.8312,-9.8281,-9.8252,-9.822,-9.8541,-9.8541,-9.8758,-9.876,-9.8762]}]]